Tracking 29059 objects as of 17-Jun-2024
HD Live streaming from Space Station
objects crossing your sky now

HAWK-5C

Track HAWK-5C now!
10-day predictions


NORAD ID: 52754
Int'l Code: 2022-057Y
Perigee: 496.0 km
Apogee: 508.5 km
Inclination: 97.6 °
Period: 94.5 minutes
Semi major axis: 6873 km
RCS: Unknown
Launch date: May 25, 2022
Source: United States (US)
Launch site: AIR FORCE EASTERN TEST RANGE (AFETR)
Your satellite tracking list
Your tracking list is empty




NASA's NSSDC Master Catalog

Two Line Element Set (TLE):
1 52754U 22057Y   24168.86397452  .00010154  00000-0  42692-3 0  9991
2 52754  97.5781 291.1035 0009084 146.6134 213.5677 15.23573776114169
Source of the keplerian elements: AFSPC